Location: La Pernelle
(49.6188°N, 1.2999°W)
Time: 15:19:02
(UTC+00:00)

Cosmos 1626 - Pass Details

Date: 28 October 2021
Orbit: 487 x 492 km, 82.5° (Epoch: 30 November)

Event Time Altitude Azimuth Distance (km) Brightness Sun altitude
Exits shadow 05:24:49 16° 317° (NW) 1,347 3.9 -13.9°
Drops below altitude 10° 05:26:19 10° 339° (NNW) 1,700 4.6 -13.7°
Sets 05:28:55 0° 358° (N) 2,588 5.7 -13.2°
